Wind_Speed
26 27 32 36 25 39 43 22 5 27 39 11 9 15 29 21 14 15 3 2 1 6 6 7 8 9 2 3 8 8 12 6 13 17 12 13 18 17 18 11 12 7 9 16
30 28 27 31 30 29 44 16 8 33 43 10 13 26 26 24 15 8 9 7 6 4 5 5 7 5 3 2 4 7 8 7 11 16 7 10 14 20 18 19 15 16 9 7
28 30 29 22 36 30 45 14 4 11 27 24 20 27 23 26 20 10 5 3 7 7 10 7 4 8 3 3 2 3 0 8 11 13 5 2 4 10 14 17 10 15 19 19
28 28 26 22 26 29 37 9 5 8 11 16 21 22 17 22 24 22 14 9 12 10 7 9 12 13 11 11 10 7 6 14 15 19 18 17 17 18 18 21 21 18 21 21
27 29 27 26 34 37 27 8 6 2 23 28 21 20 23 22 24 15 21 18 14 18 16 15 11 14 15 15 7 10 5 11 13 21 19 19 21 24 25 24 25 24 23 29
26 31 31 31 37 44 12 14 20 18 18 18 17 18 24 25 16 16 22 16 15 13 18 20 21 14 13 10 10 10 7 7 10 18 16 17 16 25 25 27 23 22 23 26
27 28 23 24 47 51 24 29 22 7 9 14 21 24 25 22 18 18 14 15 13 9 3 2 5 9 14 16 16 18 13 11 9 12 7 15 15 6 11 17 20 23 23 22
24 25 20 24 36 39 18 30 17 5 5 16 16 20 18 19 15 9 16 12 9 8 7 4 4 6 4 11 20 20 18 16 7 9 14 19 21 9 5 9 18 16 18 18
25 24 24 27 35 34 23 24 22 6 5 9 8 17 13 10 10 8 12 12 11 5 4 4 6 7 8 5 4 6 18 19 14 15 17 20 17 15 8 5 12 12 18 14
19 27 23 26 24 26 22 19 16 4 7 7 11 6 11 13 10 6 8 12 11 17 7 8 9 13 9 10 12 5 4 7 17 16 17 13 9 6 11 8 5 1 9 13
22 28 24 26 24 22 20 15 14 8 6 8 10 11 10 14 17 8 9 7 6 9 8 6 7 8 11 14 13 16 11 7 7 13 10 11 11 11 8 0 1 4 8 17
15 25 24 23 23 21 20 13 13 12 6 5 8 11 12 10 9 13 14 6 7 10 7 8 6 7 5 14 14 11 9 11 8 8 3 3 20 2 7 3 3 7 13 16
8 13 17 21 22 21 17 13 17 13 6 4 7 13 19 20 18 13 10 9 10 4 4 2 4 7 6 10 12 13 9 8 6 1 7 7 13 10 6 6 5 10 14 18
14 18 18 18 18 18 16 14 15 12 7 4 6 13 20 22 22 27 20 12 8 10 8 5 3 4 5 6 6 8 5 7 9 9 5 5 13 16 13 10 10 13 15 18
9 22 22 21 20 19 17 14 15 12 6 1 2 7 15 18 23 24 22 21 15 8 6 5 5 4 2 2 3 9 8 7 9 7 3 7 2 13 14 13 14 17 20 19
16 18 29 24 23 21 16 5 16 17 11 2 3 4 8 18 17 20 21 22 16 11 4 5 8 5 5 4 4 3 10 5 5 2 5 3 5 11 12 13 15 17 18 20
13 17 26 29 24 23 14 5 4 19 16 3 3 3 6 15 14 12 15 17 12 13 6 5 4 5 14 3 6 5 5 5 5 8 8 6 8 6 12 14 15 16 17 19
11 16 26 26 23 18 19 6 2 20 14 4 3 3 3 14 9 6 14 11 13 12 7 4 3 3 6 4 5 5 5 6 8 3 1 1 9 14 15 15 17 20 21 22
17 22 24 22 17 10 13 16 10 23 8 5 5 3 0 10 6 8 6 7 4 8 5 4 6 5 5 1 5 8 10 5 7 5 6 10 13 16 17 17 19 20 22 23
27 31 13 7 14 10 10 7 4 11 9 6 3 2 3 5 5 3 7 6 5 5 5 5 4 4 3 1 4 10 10 9 10 11 8 11 14 16 17 17 17 18 21 23
24 8 6 13 23 14 9 6 8 8 4 8 4 10 1 1 3 3 1 3 2 4 4 3 3 3 3 6 10 11 9 11 4 1 3 9 12 17 17 17 17 18 20 22
10 9 15 20 9 6 3 3 3 4 2 5 4 6 3 4 1 2 2 2 2 3 2 3 2 3 7 11 12 9 9 9 2 1 5 10 13 15 16 17 18 20 21 24
10 3 3 1 3 4 5 6 3 3 5 6 8 4 2 3 3 3 1 2 2 4 3 2 2 6 10 13 10 10 9 7 4 5 9 11 14 14 16 18 20 23 24 23
2 3 3 2 2 1 0 2 2 2 2 10 8 4 2 2 2 1 2 2 2 4 3 2 3 9 12 13 9 11 10 8 7 9 10 11 13 14 14 16 17 19 21 23
2 2 2 1 1 0 0 1 3 1 7 6 6 5 2 2 2 1 3 3 3 2 1 2 5 10 15 14 12 11 10 10 9 10 10 11 12 14 15 15 16 17 19 21
3 3 2 0 2 3 2 3 3 3 6 5 3 2 2 2 2 2 1 2 2 2 2 3 6 14 16 14 11 12 11 10 11 10 10 10 12 13 14 15 15 16 18 22
2 3 3 2 3 4 2 2 2 4 1 2 1 2 2 2 2 2 1 0 2 5 5 4 6 15 15 13 12 12 12 11 12 11 11 11 12 13 13 15 15 16 17 19
Wind_Direction
261 254 251 255 230 223 202 179 176 175 173 151 203 209 214 217 217 232 257 326 254 187 157 175 203 211 235 134 158 181 208 248 236 214 221 242 222 226 218 229 223 243 278 267
260 259 252 263 251 226 181 180 166 172 170 170 193 223 225 233 224 222 205 229 238 168 182 189 211 178 96 164 191 185 177 212 236 240 225 219 232 236 243 236 253 249 250 248
256 251 243 257 235 237 184 161 145 159 188 191 191 205 219 221 222 245 194 229 218 202 219 222 207 209 137 128 111 49 146 245 246 254 286 32 204 252 241 245 240 253 248 276
261 250 241 256 229 188 169 149 169 179 170 196 202 201 206 216 214 217 216 227 231 214 229 226 233 239 246 261 248 242 243 260 266 266 268 270 253 247 243 240 241 246 269 272
258 250 240 236 224 209 189 143 127 205 160 183 200 201 214 207 209 188 207 226 233 229 235 232 236 238 240 240 213 236 230 261 263 263 262 262 262 257 258 258 259 259 261 266
253 240 238 231 221 201 186 159 172 166 170 184 197 204 213 214 208 208 230 227 238 231 230 243 254 268 260 256 246 230 238 240 240 258 258 257 256 248 253 256 254 251 253 258
246 244 239 237 199 188 181 165 148 163 174 181 196 206 218 234 231 235 219 231 239 227 209 282 245 251 255 253 250 247 239 239 248 262 279 236 250 280 273 254 249 247 251 261
238 236 224 236 192 189 168 166 161 163 157 193 195 204 210 211 209 228 226 214 230 187 194 230 239 222 238 240 240 232 229 242 249 244 251 261 274 236 215 194 248 246 247 248
219 220 213 197 187 187 181 159 166 149 141 194 188 179 183 194 202 204 227 233 232 229 228 201 237 231 225 207 208 253 233 229 234 243 249 258 268 278 180 178 266 228 234 240
220 207 196 170 170 183 187 182 167 120 100 145 156 167 196 200 200 225 178 184 197 208 213 226 239 249 255 247 235 186 191 214 227 234 243 256 263 176 165 197 261 226 206 190
148 178 174 168 175 180 190 189 199 175 180 161 183 178 159 189 204 193 152 162 188 185 206 218 219 234 240 244 251 251 228 232 222 223 237 232 182 159 213 246 65 154 176 179
125 143 153 164 171 181 187 163 179 179 179 156 188 188 194 199 216 235 196 236 163 199 214 213 215 221 240 229 245 213 245 228 247 218 263 118 180 202 186 179 184 173 165 165
152 146 158 166 171 176 180 161 174 171 185 235 240 228 214 217 217 219 228 228 231 201 234 347 255 241 231 227 232 255 228 220 232 247 208 187 209 213 198 195 196 168 163 160
209 176 170 173 178 182 184 179 177 173 156 217 232 227 231 226 228 226 225 231 222 224 219 219 256 253 225 256 277 251 288 167 222 239 234 224 223 214 202 184 157 152 155 160
194 191 181 180 181 187 186 190 192 190 197 357 262 283 228 221 213 213 216 220 220 208 216 221 241 261 266 248 268 250 198 218 219 248 260 240 351 200 186 175 164 163 157 153
193 191 187 178 178 176 163 190 219 212 209 266 265 219 209 200 196 199 202 208 213 220 219 263 257 215 170 234 227 187 199 215 223 301 97 116 125 152 169 167 159 158 160 163
183 184 186 181 176 178 169 183 194 202 193 204 246 226 188 184 182 195 201 205 210 212 205 222 248 229 194 264 252 140 183 189 153 145 127 107 155 162 156 154 152 153 156 159
153 157 170 174 179 184 199 208 115 176 169 197 265 224 201 186 167 150 177 172 178 190 184 223 232 201 227 247 141 156 151 146 146 158 205 177 157 147 149 149 150 150 153 155
146 147 152 158 173 192 210 225 255 178 185 205 216 249 308 173 144 148 136 165 171 165 190 223 198 206 221 50 167 174 163 153 159 125 121 137 148 152 154 155 156 155 156 157
141 142 143 170 191 170 181 190 231 214 207 240 241 222 222 186 150 107 142 186 150 175 173 169 231 226 117 35 167 160 151 141 140 127 139 154 161 165 165 167 166 165 162 161
143 167 165 144 165 149 187 177 201 194 207 190 197 211 131 90 97 119 144 143 183 188 140 227 194 203 128 127 130 140 142 144 127 141 183 184 180 173 169 169 170 169 168 168
169 138 131 126 162 177 205 221 185 217 167 164 180 155 140 156 210 153 104 104 189 165 142 210 230 104 136 140 138 138 146 160 147 127 158 166 169 171 170 170 169 169 170 175
94 95 93 140 128 194 207 178 183 161 154 163 162 131 110 131 76 77 113 143 123 142 192 215 59 134 150 152 137 138 145 153 143 128 137 147 155 164 169 167 172 179 183 185
110 106 127 270 178 193 106 42 69 72 133 147 141 98 71 65 70 20 120 85 204 189 211 179 130 159 153 155 149 149 151 152 146 144 148 157 166 168 177 186 182 182 183 183
51 73 64 56 327 225 129 64 125 116 141 133 115 88 88 68 107 54 131 166 197 234 148 116 134 158 157 158 158 161 159 157 155 153 152 160 166 168 169 177 182 185 187 185
82 57 181 323 217 111 72 72 94 115 130 109 75 110 100 84 108 172 171 198 207 115 114 104 151 165 165 163 160 160 159 159 156 151 154 164 171 171 171 173 183 185 189 188
64 81 55 49 53 59 73 64 77 135 115 85 106 91 68 127 145 149 205 59 89 115 105 117 147 170 170 169 169 166 161 164 163 158 159 162 172 177 177 178 182 187 189 190
Height
1408 1409 1412 1413 1416 1423 1425 1427 1433 1441 1447 1458 1465 1460 1445 1455 1454 1455 1456 1456 1454 1450 1451 1454 1455 1453 1453 1462 1464 1468 1466 1464 1463 1466 1461 1465 1461 1465 1469 1480 1479 1477 1477 1460
1397 1399 1401 1404 1407 1412 1413 1420 1428 1433 1435 1442 1452 1450 1454 1453 1454 1453 1453 1455 1456 1455 1453 1457 1455 1455 1463 1463 1465 1465 1466 1466 1467 1461 1467 1466 1463 1459 1460 1464 1468 1471 1476 1455
1394 1395 1395 1398 1399 1399 1403 1412 1416 1423 1431 1433 1436 1443 1444 1449 1455 1454 1456 1456 1456 1456 1456 1455 1456 1458 1462 1466 1467 1468 1468 1461 1462 1453 1455 1462 1472 1467 1463 1465 1471 1461 1452 1449
1383 1386 1387 1391 1393 1393 1391 1401 1406 1409 1417 1431 1429 1436 1437 1441 1446 1452 1453 1455 1456 1454 1455 1454 1457 1459 1460 1463 1465 1468 1468 1463 1460 1454 1453 1453 1460 1459 1454 1454 1456 1461 1449 1448
1374 1376 1380 1384 1388 1391 1391 1392 1398 1408 1414 1422 1426 1428 1432 1432 1439 1441 1446 1449 1448 1451 1452 1450 1450 1455 1458 1458 1461 1461 1463 1458 1458 1452 1452 1453 1451 1447 1443 1444 1441 1442 1444 1436
1368 1370 1372 1372 1378 1385 1385 1391 1398 1406 1411 1418 1425 1422 1421 1422 1431 1439 1441 1443 1446 1448 1447 1451 1452 1455 1458 1459 1458 1457 1461 1458 1458 1451 1448 1449 1452 1436 1436 1431 1433 1436 1435 1427
1359 1361 1361 1364 1367 1374 1382 1386 1394 1401 1404 1408 1408 1414 1419 1423 1430 1434 1438 1442 1445 1447 1450 1452 1454 1455 1455 1455 1454 1456 1455 1458 1456 1449 1449 1447 1420 1424 1424 1423 1425 1424 1426 1427
1349 1353 1355 1357 1363 1369 1377 1385 1392 1398 1402 1405 1410 1412 1415 1423 1432 1435 1437 1441 1444 1446 1450 1452 1453 1450 1454 1448 1446 1446 1450 1450 1455 1450 1435 1424 1420 1421 1431 1430 1421 1422 1425 1423
1347 1351 1354 1358 1364 1370 1379 1383 1392 1400 1400 1405 1407 1409 1412 1419 1428 1436 1438 1442 1444 1447 1448 1448 1445 1436 1434 1428 1437 1439 1439 1443 1446 1438 1435 1428 1414 1413 1423 1430 1421 1416 1418 1419
1339 1348 1351 1357 1363 1369 1378 1386 1394 1399 1399 1407 1409 1408 1412 1419 1424 1427 1433 1437 1442 1445 1443 1444 1439 1433 1427 1427 1427 1432 1441 1442 1441 1433 1432 1419 1416 1423 1426 1428 1413 1416 1418 1422
1339 1345 1352 1360 1368 1374 1381 1387 1395 1399 1402 1405 1407 1409 1412 1419 1423 1422 1430 1435 1436 1440 1441 1436 1430 1430 1422 1420 1423 1420 1421 1424 1424 1425 1426 1422 1416 1424 1422 1418 1419 1419 1422 1425
1346 1351 1358 1365 1371 1376 1382 1388 1391 1396 1404 1404 1406 1408 1412 1417 1421 1424 1426 1424 1425 1426 1427 1423 1420 1421 1419 1414 1414 1412 1419 1414 1411 1416 1404 1413 1413 1415 1416 1418 1419 1421 1423 1426
1353 1356 1362 1368 1373 1379 1384 1389 1394 1399 1403 1405 1406 1405 1409 1412 1416 1421 1423 1424 1425 1427 1428 1428 1422 1418 1410 1410 1408 1409 1407 1413 1411 1413 1405 1411 1415 1417 1416 1416 1420 1420 1422 1424
1355 1359 1364 1369 1374 1379 1383 1388 1394 1400 1402 1403 1401 1401 1403 1406 1411 1415 1419 1422 1422 1424 1427 1427 1424 1415 1410 1405 1405 1405 1405 1408 1404 1407 1410 1412 1412 1411 1414 1416 1415 1418 1423 1425
1353 1358 1364 1370 1376 1381 1387 1391 1394 1397 1402 1400 1399 1400 1399 1400 1405 1409 1414 1417 1420 1421 1422 1421 1419 1414 1416 1413 1412 1401 1404 1402 1402 1395 1398 1400 1402 1404 1409 1412 1413 1417 1420 1425
1355 1357 1363 1370 1376 1382 1387 1392 1393 1395 1399 1403 1401 1395 1394 1396 1399 1404 1407 1411 1416 1417 1416 1415 1411 1413 1416 1406 1400 1396 1397 1400 1401 1401 1402 1403 1404 1406 1409 1411 1413 1417 1421 1426
1353 1356 1362 1371 1377 1381 1386 1390 1389 1391 1397 1401 1397 1389 1390 1392 1396 1400 1404 1408 1410 1413 1415 1414 1413 1409 1408 1404 1391 1395 1398 1400 1400 1401 1402 1405 1406 1406 1409 1411 1414 1418 1423 1428
1352 1356 1362 1370 1377 1383 1387 1388 1387 1390 1396 1399 1393 1384 1387 1387 1389 1394 1397 1401 1405 1407 1408 1409 1406 1404 1399 1391 1394 1397 1398 1399 1400 1402 1402 1403 1404 1406 1410 1412 1415 1419 1424 1428
1355 1359 1367 1375 1381 1384 1385 1388 1388 1389 1394 1391 1386 1379 1374 1381 1383 1388 1392 1396 1397 1401 1401 1398 1399 1391 1388 1389 1392 1395 1397 1399 1401 1402 1403 1404 1406 1408 1411 1414 1417 1420 1424 1428
1358 1365 1370 1375 1377 1381 1384 1389 1391 1388 1385 1385 1379 1379 1372 1376 1376 1382 1387 1389 1387 1388 1391 1394 1389 1382 1390 1392 1393 1395 1397 1399 1401 1403 1405 1405 1407 1410 1412 1415 1419 1422 1425 1429
1360 1364 1366 1369 1374 1378 1381 1381 1383 1380 1375 1375 1374 1374 1371 1374 1372 1375 1379 1378 1381 1379 1385 1385 1381 1379 1390 1392 1394 1396 1398 1400 1402 1403 1403 1405 1407 1409 1412 1416 1420 1423 1426 1430
1359 1361 1364 1369 1374 1375 1375 1371 1371 1368 1363 1369 1369 1370 1371 1374 1373 1373 1378 1377 1380 1377 1387 1383 1379 1387 1391 1393 1396 1397 1399 1401 1402 1402 1403 1404 1407 1409 1413 1416 1419 1423 1426 1429
1361 1364 1365 1367 1370 1368 1365 1364 1362 1362 1365 1368 1369 1371 1372 1373 1374 1377 1377 1379 1381 1387 1384 1379 1384 1390 1393 1395 1397 1398 1400 1402 1402 1403 1404 1405 1407 1410 1413 1415 1419 1421 1424 1428
1362 1365 1366 1366 1363 1363 1362 1360 1360 1365 1365 1367 1368 1371 1371 1375 1377 1380 1379 1388 1386 1381 1380 1378 1386 1391 1393 1396 1398 1400 1401 1403 1404 1405 1406 1407 1409 1411 1413 1416 1418 1421 1424 1428
1363 1365 1366 1365 1366 1366 1365 1365 1365 1366 1367 1368 1370 1372 1374 1376 1379 1381 1383 1384 1378 1377 1376 1385 1389 1391 1393 1396 1399 1401 1402 1404 1405 1406 1408 1409 1411 1412 1415 1417 1420 1423 1426 1429
1367 1369 1367 1367 1365 1366 1366 1366 1366 1367 1367 1369 1371 1373 1375 1378 1378 1378 1377 1375 1374 1381 1386 1389 1390 1392 1395 1398 1400 1402 1403 1405 1406 1408 1409 1411 1413 1415 1417 1419 1422 1424 1427 1429
1367 1369 1370 1368 1367 1368 1368 1368 1368 1368 1370 1371 1371 1373 1377 1380 1378 1379 1381 1379 1384 1387 1389 1390 1391 1393 1396 1398 1400 1402 1404 1405 1407 1409 1410 1412 1414 1416 1418 1420 1423 1425 1428 1431